| time (UTC) | temp F | wind direction | speed MPH | gust MPH | rain 1hr in | rain 24hr in | rain mn in | humidity % | barometer mb |
| 20260502164007 | 56 | 177 | 4.0 | 5.0 | 0.00 | 0.00 | 0.00 | 36 | 1015.4 |
| 20260502163503 | 56 | 262 | 3.0 | 3.0 | 0.00 | 0.00 | 0.00 | 37 | 1015.6 |
| 20260502163000 | 56 | 230 | 1.0 | 1.0 | 0.00 | 0.00 | 0.00 | 38 | 1015.5 |
| 20260502162457 | 56 | 265 | 5.0 | 5.0 | 0.00 | 0.00 | 0.00 | 37 | 1015.7 |
| 20260502161954 | 55 | 223 | 1.0 | 1.0 | 0.00 | 0.00 | 0.00 | 38 | 1015.7 |
| 20260502161450 | 55 | 260 | 2.0 | 2.0 | 0.00 | 0.00 | 0.00 | 38 | 1015.7 |
| 20260502160949 | 55 | 244 | 4.0 | 5.0 | 0.00 | 0.00 | 0.00 | 40 | 1015.8 |
| 20260502160446 | 54 | 282 | 3.0 | 3.0 | 0.00 | 0.00 | 0.00 | 39 | 1015.8 |
| 20260502151935 | 53 | 278 | 4.0 | 5.0 | 0.00 | 0.00 | 0.00 | 43 | 1016.4 |
| 20260502151432 | 53 | 249 | 5.0 | 8.0 | 0.00 | 0.00 | 0.00 | 42 | 1016.4 |
| 20260502150929 | 53 | 266 | 6.0 | 7.0 | 0.00 | 0.00 | 0.00 | 43 | 1016.5 |
| 20260502150426 | 52 | 273 | 5.0 | 6.0 | 0.00 | 0.00 | 0.00 | 43 | 1016.6 |
| 20260502130312 | 43 | 273 | 2.0 | 2.0 | 0.00 | 0.00 | 0.00 | 66 | 1017.5 |
| 20260502123757 | 40 | 252 | 1.0 | 1.0 | 0.00 | 0.00 | 0.00 | 69 | 1017.4 |
| 20260502123254 | 39 | 260 | 1.0 | 2.0 | 0.00 | 0.00 | 0.00 | 71 | 1017.3 |
| 20260502122751 | 39 | 275 | 1.0 | 2.0 | 0.00 | 0.00 | 0.00 | 73 | 1017.3 |
| 20260502122247 | 38 | 253 | 1.0 | 2.0 | 0.00 | 0.00 | 0.00 | 75 | 1017.4 |
| 20260502121745 | 37 | 229 | 1.0 | 1.0 | 0.00 | 0.00 | 0.00 | 76 | 1017.3 |
| 20260502121243 | 35 | 223 | 1.0 | 1.0 | 0.00 | 0.00 | 0.00 | 79 | 1017.4 |
| 20260502120739 | 35 | 211 | 0.0 | 0.0 | 0.00 | 0.00 | 0.00 | 79 | 1017.2 |
| 20260502120236 | 35 | 211 | 0.0 | 0.0 | 0.00 | 0.00 | 0.00 | 78 | 1017.2 |
| 20260502115734 | 35 | 211 | 0.0 | 0.0 | 0.00 | 0.00 | 0.00 | 78 | 1017.2 |
| 20260502115231 | 35 | 211 | 0.0 | 0.0 | 0.00 | 0.00 | 0.00 | 78 | 1017.3 |
| 20260502114726 | 35 | 211 | 0.0 | 0.0 | 0.00 | 0.00 | 0.00 | 78 | 1017.3 |
| 20260502114224 | 35 | 211 | 0.0 | 0.0 | 0.00 | 0.00 | 0.00 | 78 | 1017.1 |
| 20260502113721 | 35 | 211 | 0.0 | 0.0 | 0.00 | 0.00 | 0.00 | 78 | 1017.2 |
| 20260502113219 | 35 | 213 | 0.0 | 0.0 | 0.00 | 0.00 | 0.00 | 76 | 1017.4 |
| 20260502112716 | 35 | 213 | 0.0 | 0.0 | 0.00 | 0.00 | 0.00 | 76 | 1017.4 |
| 20260502112214 | 35 | 220 | 0.0 | 1.0 | 0.00 | 0.00 | 0.00 | 78 | 1017.3 |
| 20260502111711 | 35 | 207 | 0.0 | 0.0 | 0.00 | 0.00 | 0.00 | 77 | 1017.2 |
| 20260502111209 | 35 | 201 | 0.0 | 0.0 | 0.00 | 0.00 | 0.00 | 77 | 1017.2 |
| 20260502110706 | 37 | 198 | 0.0 | 0.0 | 0.00 | 0.00 | 0.00 | 74 | 1017.2 |
| 20260502110203 | 37 | 230 | 1.0 | 1.0 | 0.00 | 0.00 | 0.00 | 72 | 1017.1 |
| 20260502105701 | 37 | 227 | 1.0 | 1.0 | 0.00 | 0.00 | 0.00 | 72 | 1017.4 |
| 20260502105157 | 37 | 228 | 1.0 | 1.0 | 0.00 | 0.00 | 0.00 | 72 | 1017.2 |
| 20260502104655 | 37 | 254 | 1.0 | 1.0 | 0.00 | 0.00 | 0.00 | 72 | 1017.2 |
| 20260502104152 | 37 | 226 | 1.0 | 1.0 | 0.00 | 0.00 | 0.00 | 71 | 1017.1 |
| 20260502103649 | 37 | 227 | 1.0 | 1.0 | 0.00 | 0.00 | 0.00 | 71 | 1017.2 |
| 20260502103148 | 37 | 248 | 1.0 | 2.0 | 0.00 | 0.00 | 0.00 | 71 | 1017.3 |
| 20260502102644 | 37 | 230 | 2.0 | 2.0 | 0.00 | 0.00 | 0.00 | 71 | 1017.0 |
| 20260502102141 | 37 | 237 | 1.0 | 2.0 | 0.00 | 0.00 | 0.00 | 71 | 1017.1 |
| 20260502101639 | 37 | 233 | 1.0 | 1.0 | 0.00 | 0.00 | 0.00 | 71 | 1017.0 |
| 20260502101137 | 37 | 231 | 1.0 | 1.0 | 0.00 | 0.00 | 0.00 | 72 | 1017.0 |
| 20260502100635 | 37 | 222 | 0.0 | 1.0 | 0.00 | 0.00 | 0.00 | 72 | 1016.8 |
| 20260502100133 | 37 | 223 | 0.0 | 0.0 | 0.00 | 0.00 | 0.00 | 71 | 1016.8 |
| 20260502091107 | 36 | 223 | 0.0 | 1.0 | 0.00 | 0.00 | 0.00 | 73 | 1016.8 |
| 20260502090604 | 36 | 212 | 1.0 | 1.0 | 0.00 | 0.00 | 0.00 | 73 | 1016.8 |
| 20260502071458 | 40 | 218 | 0.0 | 0.0 | 0.00 | 0.00 | 0.00 | 61 | 1017.2 |
| 20260502070956 | 40 | 217 | 1.0 | 1.0 | 0.00 | 0.00 | 0.00 | 60 | 1017.0 |
| 20260502070454 | 41 | 219 | 0.0 | 1.0 | 0.00 | 0.00 | 0.00 | 60 | 1017.3 |
| 20260502065952 | 41 | 243 | 1.0 | 2.0 | 0.00 | 0.00 | 0.00 | 60 | 1017.1 |
| 20260502065451 | 41 | 228 | 1.0 | 1.0 | 0.00 | 0.00 | 0.00 | 59 | 1017.2 |
| 20260502064948 | 41 | 219 | 0.0 | 0.0 | 0.00 | 0.00 | 0.00 | 59 | 1017.1 |
| 20260502064446 | 41 | 232 | 1.0 | 1.0 | 0.00 | 0.00 | 0.00 | 58 | 1017.3 |
| 20260502063943 | 41 | 233 | 1.0 | 1.0 | 0.00 | 0.00 | 0.00 | 58 | 1017.2 |
| 20260502063441 | 41 | 217 | 0.0 | 1.0 | 0.00 | 0.00 | 0.00 | 57 | 1017.5 |
| 20260502062938 | 41 | 251 | 1.0 | 2.0 | 0.00 | 0.00 | 0.00 | 57 | 1017.3 |
| 20260502062435 | 42 | 227 | 1.0 | 1.0 | 0.00 | 0.00 | 0.00 | 57 | 1017.3 |
| 20260502061934 | 42 | 229 | 1.0 | 1.0 | 0.00 | 0.00 | 0.00 | 56 | 1017.3 |
| 20260502061431 | 42 | 222 | 1.0 | 1.0 | 0.00 | 0.00 | 0.00 | 56 | 1017.3 |
| 20260502060927 | 42 | 236 | 1.0 | 1.0 | 0.00 | 0.00 | 0.00 | 57 | 1017.4 |
| 20260502060422 | 42 | 251 | 2.0 | 2.0 | 0.00 | 0.00 | 0.00 | 56 | 1017.3 |
| 20260502055920 | 42 | 251 | 1.0 | 2.0 | 0.00 | 0.00 | 0.00 | 57 | 1017.4 |
| 20260502055418 | 42 | 234 | 0.0 | 1.0 | 0.00 | 0.00 | 0.00 | 57 | 1017.2 |
| 20260502054917 | 42 | 221 | 0.0 | 1.0 | 0.00 | 0.00 | 0.00 | 56 | 1017.3 |
| 20260502054414 | 42 | 222 | 1.0 | 1.0 | 0.00 | 0.00 | 0.00 | 56 | 1017.4 |
| 20260502053912 | 42 | 223 | 0.0 | 1.0 | 0.00 | 0.00 | 0.00 | 56 | 1017.3 |
| 20260502053409 | 42 | 257 | 2.0 | 2.0 | 0.00 | 0.00 | 0.00 | 55 | 1017.4 |
| 20260502052906 | 42 | 237 | 1.0 | 1.0 | 0.00 | 0.00 | 0.00 | 55 | 1017.5 |
| 20260502052405 | 42 | 221 | 1.0 | 1.0 | 0.00 | 0.00 | 0.00 | 55 | 1017.3 |
| 20260502051902 | 42 | 238 | 1.0 | 1.0 | 0.00 | 0.00 | 0.00 | 55 | 1017.4 |
| 20260502051400 | 42 | 228 | 1.0 | 1.0 | 0.00 | 0.00 | 0.00 | 55 | 1017.4 |
| 20260502050857 | 42 | 231 | 1.0 | 1.0 | 0.00 | 0.00 | 0.00 | 55 | 1017.4 |
| 20260502050353 | 42 | 231 | 1.0 | 1.0 | 0.00 | 0.00 | 0.00 | 54 | 1017.4 |
| 20260502045850 | 43 | 228 | 1.0 | 1.0 | 0.00 | 0.00 | 0.00 | 54 | 1017.4 |
| 20260502045347 | 43 | 224 | 1.0 | 1.0 | 0.00 | 0.00 | 0.00 | 54 | 1017.4 |
| 20260502044844 | 43 | 235 | 1.0 | 1.0 | 0.00 | 0.00 | 0.00 | 53 | 1017.4 |
| 20260502044340 | 43 | 237 | 1.0 | 1.0 | 0.00 | 0.00 | 0.00 | 53 | 1017.3 |
| 20260502043837 | 43 | 224 | 1.0 | 1.0 | 0.00 | 0.00 | 0.00 | 54 | 1017.3 |
| 20260502043335 | 43 | 227 | 1.0 | 1.0 | 0.00 | 0.00 | 0.00 | 54 | 1017.2 |
| 20260502042834 | 43 | 218 | 0.0 | 0.0 | 0.00 | 0.00 | 0.00 | 55 | 1017.3 |
| 20260502042332 | 42 | 227 | 1.0 | 1.0 | 0.00 | 0.00 | 0.00 | 55 | 1017.4 |
| 20260502041829 | 41 | 227 | 1.0 | 1.0 | 0.00 | 0.00 | 0.00 | 58 | 1017.4 |
| 20260502041326 | 40 | 220 | 0.0 | 0.0 | 0.00 | 0.00 | 0.00 | 65 | 1017.4 |
| 20260502040823 | 39 | 215 | 0.0 | 0.0 | 0.00 | 0.00 | 0.00 | 63 | 1017.5 |
| 20260502040320 | 39 | 208 | 0.0 | 0.0 | 0.00 | 0.00 | 0.00 | 68 | 1017.3 |
| 20260502035816 | 39 | 209 | 0.0 | 0.0 | 0.00 | 0.00 | 0.00 | 68 | 1017.3 |
| 20260502035313 | 39 | 207 | 0.0 | 0.0 | 0.00 | 0.00 | 0.00 | 70 | 1017.4 |
| 20260502034811 | 39 | 205 | 0.0 | 0.0 | 0.00 | 0.00 | 0.00 | 74 | 1017.3 |
| 20260502034309 | 38 | 203 | 0.0 | 0.0 | 0.00 | 0.00 | 0.00 | 75 | 1017.4 |
| 20260502033807 | 38 | 208 | 0.0 | 0.0 | 0.00 | 0.00 | 0.00 | 76 | 1017.5 |
| 20260502033304 | 38 | 213 | 0.0 | 0.0 | 0.00 | 0.00 | 0.00 | 75 | 1017.5 |
| 20260502032801 | 39 | 213 | 0.0 | 0.0 | 0.00 | 0.00 | 0.00 | 75 | 1017.5 |
| 20260502032257 | 39 | 209 | 0.0 | 1.0 | 0.00 | 0.00 | 0.00 | 72 | 1017.2 |
| 20260502031755 | 39 | 207 | 0.0 | 1.0 | 0.00 | 0.00 | 0.00 | 73 | 1017.3 |
| 20260502031253 | 39 | 203 | 0.0 | 0.0 | 0.00 | 0.00 | 0.00 | 73 | 1017.4 |
| 20260502030751 | 39 | 213 | 0.0 | 0.0 | 0.00 | 0.00 | 0.00 | 74 | 1017.2 |
| 20260502030248 | 39 | 207 | 0.0 | 0.0 | 0.00 | 0.00 | 0.00 | 74 | 1017.4 |
| 20260502025746 | 39 | 208 | 0.0 | 0.0 | 0.00 | 0.00 | 0.00 | 75 | 1017.3 |
| 20260502025244 | 39 | 209 | 0.0 | 0.0 | 0.00 | 0.00 | 0.00 | 73 | 1017.6 |
| 20260502024741 | 40 | 212 | 0.0 | 0.0 | 0.00 | 0.00 | 0.00 | 73 | 1017.3 |
| 20260502024239 | 40 | 213 | 0.0 | 0.0 | 0.00 | 0.00 | 0.00 | 72 | 1017.4 |
| 20260502023737 | 40 | 213 | 0.0 | 0.0 | 0.00 | 0.00 | 0.00 | 70 | 1017.4 |
| 20260502023234 | 40 | 211 | 0.0 | 0.0 | 0.00 | 0.00 | 0.00 | 72 | 1017.5 |
| 20260502022732 | 40 | 208 | 0.0 | 0.0 | 0.00 | 0.00 | 0.00 | 70 | 1017.6 |
| 20260502022227 | 41 | 213 | 0.0 | 0.0 | 0.00 | 0.00 | 0.00 | 69 | 1017.4 |
| 20260502021725 | 41 | 211 | 0.0 | 0.0 | 0.00 | 0.00 | 0.00 | 69 | 1017.3 |
| 20260502021222 | 41 | 207 | 0.0 | 0.0 | 0.00 | 0.00 | 0.00 | 69 | 1017.3 |
| 20260502020719 | 42 | 211 | 0.0 | 0.0 | 0.00 | 0.00 | 0.00 | 68 | 1017.3 |
| 20260502020216 | 42 | 211 | 0.0 | 0.0 | 0.00 | 0.00 | 0.00 | 67 | 1017.0 |
| 20260502015714 | 42 | 211 | 0.0 | 0.0 | 0.00 | 0.00 | 0.00 | 66 | 1017.1 |
| 20260502015210 | 43 | 212 | 0.0 | 0.0 | 0.00 | 0.00 | 0.00 | 64 | 1017.1 |
| 20260502014708 | 43 | 213 | 0.0 | 0.0 | 0.00 | 0.00 | 0.00 | 63 | 1016.8 |
| 20260502014205 | 44 | 213 | 0.0 | 0.0 | 0.00 | 0.00 | 0.00 | 63 | 1016.8 |
| 20260502013701 | 44 | 213 | 0.0 | 0.0 | 0.00 | 0.00 | 0.00 | 62 | 1016.7 |
| 20260502013155 | 45 | 209 | 0.0 | 0.0 | 0.00 | 0.00 | 0.00 | 54 | 1016.7 |
| 20260502012654 | 45 | 214 | 0.0 | 0.0 | 0.00 | 0.00 | 0.00 | 56 | 1016.6 |
| 20260502012152 | 46 | 211 | 0.0 | 0.0 | 0.00 | 0.00 | 0.00 | 56 | 1016.5 |
| 20260502011648 | 46 | 211 | 0.0 | 0.0 | 0.00 | 0.00 | 0.00 | 55 | 1016.6 |
| 20260502011144 | 47 | 210 | 0.0 | 0.0 | 0.00 | 0.00 | 0.00 | 50 | 1016.6 |
| 20260502010642 | 48 | 207 | 0.0 | 0.0 | 0.00 | 0.00 | 0.00 | 43 | 1016.5 |
| 20260502010138 | 48 | 210 | 0.0 | 0.0 | 0.00 | 0.00 | 0.00 | 46 | 1016.5 |
| 20260502005635 | 49 | 213 | 0.0 | 0.0 | 0.00 | 0.00 | 0.00 | 52 | 1016.6 |
| 20260502005133 | 49 | 203 | 0.0 | 0.0 | 0.00 | 0.00 | 0.00 | 42 | 1016.5 |
| 20260502004628 | 49 | 204 | 0.0 | 0.0 | 0.00 | 0.00 | 0.00 | 43 | 1016.5 |
| 20260502004126 | 50 | 206 | 0.0 | 0.0 | 0.00 | 0.00 | 0.00 | 42 | 1016.5 |
| 20260502003624 | 50 | 212 | 0.0 | 0.0 | 0.00 | 0.00 | 0.00 | 40 | 1016.5 |
| 20260502003120 | 50 | 212 | 0.0 | 0.0 | 0.00 | 0.00 | 0.00 | 38 | 1016.4 |
| 20260502002616 | 50 | 208 | 0.0 | 0.0 | 0.00 | 0.00 | 0.00 | 37 | 1016.5 |
| 20260502002114 | 50 | 192 | 0.0 | 0.0 | 0.00 | 0.00 | 0.00 | 39 | 1016.5 |
| 20260502001612 | 50 | 172 | 1.0 | 1.0 | 0.00 | 0.00 | 0.00 | 37 | 1016.5 |
| 20260502001108 | 50 | 170 | 0.0 | 0.0 | 0.00 | 0.00 | 0.00 | 38 | 1016.7 |
| 20260502000607 | 50 | 181 | 0.0 | 0.0 | 0.00 | 0.00 | 0.00 | 36 | 1016.6 |
| 20260501235559 | 51 | 53 | 2.0 | 2.0 | 0.00 | 0.00 | 0.00 | 37 | 1016.6 |
| 20260501235055 | 50 | 357 | 3.0 | 3.0 | 0.00 | 0.00 | 0.00 | 35 | 1016.5 |
| 20260501234551 | 50 | 18 | 3.0 | 5.0 | 0.00 | 0.00 | 0.00 | 36 | 1016.5 |
| 20260501234049 | 51 | 352 | 3.0 | 3.0 | 0.00 | 0.00 | 0.00 | 37 | 1016.5 |
| 20260501233547 | 51 | 355 | 3.0 | 3.0 | 0.00 | 0.00 | 0.00 | 34 | 1016.3 |
| 20260501233044 | 51 | 53 | 1.0 | 1.0 | 0.00 | 0.00 | 0.00 | 35 | 1016.4 |
| 20260501232540 | 53 | 24 | 6.0 | 7.0 | 0.00 | 0.00 | 0.00 | 35 | 1016.4 |
| 20260501232037 | 53 | 61 | 3.0 | 5.0 | 0.00 | 0.00 | 0.00 | 34 | 1016.4 |
| 20260501231535 | 53 | 320 | 3.0 | 3.0 | 0.00 | 0.00 | 0.00 | 34 | 1016.2 |
| 20260501231033 | 53 | 303 | 2.0 | 2.0 | 0.00 | 0.00 | 0.00 | 32 | 1016.4 |
| 20260501230532 | 53 | 293 | 3.0 | 3.0 | 0.00 | 0.00 | 0.00 | 32 | 1016.4 |
| 20260501230029 | 53 | 348 | 3.0 | 5.0 | 0.00 | 0.00 | 0.00 | 33 | 1016.6 |
| 20260501225526 | 53 | 307 | 4.0 | 5.0 | 0.00 | 0.00 | 0.00 | 34 | 1016.4 |
| 20260501225022 | 52 | 309 | 2.0 | 3.0 | 0.00 | 0.00 | 0.00 | 34 | 1016.3 |
| 20260501224520 | 51 | 29 | 2.0 | 2.0 | 0.00 | 0.00 | 0.00 | 36 | 1016.5 |
| 20260501224017 | 52 | 348 | 3.0 | 3.0 | 0.00 | 0.00 | 0.00 | 34 | 1016.3 |
| 20260501223513 | 52 | 0 | 4.0 | 6.0 | 0.00 | 0.00 | 0.00 | 35 | 1016.2 |
| 20260501223010 | 52 | 344 | 3.0 | 3.0 | 0.00 | 0.00 | 0.00 | 33 | 1016.3 |
| 20260501222506 | 52 | 3 | 6.0 | 9.0 | 0.00 | 0.00 | 0.00 | 35 | 1016.3 |
| 20260501222003 | 52 | 270 | 4.0 | 5.0 | 0.00 | 0.00 | 0.00 | 35 | 1016.2 |
| 20260501221459 | 51 | 279 | 3.0 | 3.0 | 0.00 | 0.00 | 0.00 | 35 | 1016.6 |
| 20260501220957 | 51 | 344 | 8.0 | 8.0 | 0.00 | 0.00 | 0.00 | 35 | 1016.7 |
| 20260501220455 | 51 | 59 | 3.0 | 3.0 | 0.00 | 0.00 | 0.00 | 36 | 1016.5 |
| 20260501215951 | 52 | 40 | 3.0 | 5.0 | 0.00 | 0.00 | 0.00 | 37 | 1016.8 |
| 20260501215448 | 51 | 339 | 2.0 | 3.0 | 0.00 | 0.00 | 0.00 | 35 | 1016.6 |
| 20260501214943 | 51 | 22 | 2.0 | 3.0 | 0.00 | 0.00 | 0.00 | 36 | 1016.6 |
| 20260501214438 | 51 | 8 | 3.0 | 3.0 | 0.00 | 0.00 | 0.00 | 34 | 1016.7 |
| 20260501213934 | 50 | 339 | 2.0 | 3.0 | 0.00 | 0.00 | 0.00 | 38 | 1016.6 |
| 20260501213432 | 51 | 46 | 3.0 | 5.0 | 0.00 | 0.00 | 0.00 | 38 | 1016.8 |
| 20260501212927 | 52 | 312 | 5.0 | 6.0 | 0.00 | 0.00 | 0.00 | 37 | 1016.8 |
| 20260501212424 | 53 | 267 | 2.0 | 2.0 | 0.00 | 0.00 | 0.00 | 37 | 1016.7 |
| 20260501211920 | 52 | 7 | 5.0 | 6.0 | 0.00 | 0.00 | 0.00 | 36 | 1016.7 |
| 20260501211418 | 52 | 34 | 5.0 | 6.0 | 0.00 | 0.00 | 0.00 | 35 | 1016.8 |
| 20260501210915 | 51 | 283 | 1.0 | 2.0 | 0.00 | 0.00 | 0.00 | 34 | 1016.8 |
| 20260501210412 | 50 | 130 | 1.0 | 2.0 | 0.00 | 0.00 | 0.00 | 38 | 1017.1 |
| 20260501205909 | 49 | 33 | 2.0 | 3.0 | 0.00 | 0.00 | 0.00 | 39 | 1017.2 |
| 20260501205406 | 50 | 26 | 4.0 | 5.0 | 0.00 | 0.00 | 0.00 | 39 | 1017.1 |
| 20260501204903 | 50 | 79 | 3.0 | 3.0 | 0.00 | 0.00 | 0.00 | 38 | 1017.2 |
| 20260501204358 | 51 | 340 | 2.0 | 2.0 | 0.00 | 0.00 | 0.00 | 37 | 1017.1 |
| 20260501203855 | 50 | 334 | 5.0 | 6.0 | 0.00 | 0.00 | 0.00 | 37 | 1017.2 |
| 20260501203352 | 50 | 17 | 6.0 | 7.0 | 0.00 | 0.00 | 0.00 | 38 | 1017.1 |
| 20260501202849 | 50 | 123 | 1.0 | 1.0 | 0.00 | 0.00 | 0.00 | 36 | 1017.1 |
| 20260501202346 | 50 | 43 | 3.0 | 3.0 | 0.00 | 0.00 | 0.00 | 37 | 1017.2 |
| 20260501201843 | 51 | 358 | 4.0 | 6.0 | 0.00 | 0.00 | 0.00 | 35 | 1017.2 |
| 20260501201340 | 51 | 11 | 4.0 | 6.0 | 0.00 | 0.00 | 0.00 | 36 | 1017.1 |
| 20260501200836 | 51 | 355 | 6.0 | 8.0 | 0.00 | 0.00 | 0.00 | 38 | 1017.0 |
| 20260501200333 | 49 | 8 | 5.0 | 6.0 | 0.00 | 0.00 | 0.00 | 39 | 1017.3 |
| 20260501195832 | 50 | 230 | 2.0 | 3.0 | 0.00 | 0.00 | 0.00 | 37 | 1017.3 |
| 20260501195327 | 51 | 27 | 4.0 | 5.0 | 0.00 | 0.00 | 0.00 | 36 | 1017.3 |
| 20260501194823 | 50 | 202 | 2.0 | 3.0 | 0.00 | 0.00 | 0.00 | 40 | 1017.3 |
| 20260501194319 | 48 | 62 | 3.0 | 3.0 | 0.00 | 0.00 | 0.00 | 39 | 1017.5 |
| 20260501193815 | 49 | 23 | 3.0 | 5.0 | 0.00 | 0.00 | 0.00 | 40 | 1017.6 |
| 20260501193315 | 48 | 6 | 3.0 | 3.0 | 0.00 | 0.00 | 0.00 | 40 | 1017.4 |
| 20260501192811 | 49 | 37 | 2.0 | 2.0 | 0.00 | 0.00 | 0.00 | 40 | 1017.4 |
| 20260501192308 | 48 | 42 | 2.0 | 2.0 | 0.00 | 0.00 | 0.00 | 39 | 1017.4 |
| 20260501191805 | 49 | 55 | 5.0 | 7.0 | 0.00 | 0.00 | 0.00 | 41 | 1017.4 |
| 20260501191303 | 50 | 52 | 4.0 | 7.0 | 0.00 | 0.00 | 0.00 | 38 | 1017.4 |
| 20260501190759 | 51 | 43 | 2.0 | 3.0 | 0.00 | 0.00 | 0.00 | 38 | 1017.3 |
| 20260501190255 | 49 | 166 | 1.0 | 1.0 | 0.00 | 0.00 | 0.00 | 39 | 1017.4 |
| 20260501185750 | 49 | 13 | 3.0 | 5.0 | 0.00 | 0.00 | 0.00 | 38 | 1017.6 |
| 20260501185246 | 50 | 353 | 6.0 | 7.0 | 0.00 | 0.00 | 0.00 | 37 | 1017.4 |
| 20260501184743 | 50 | 51 | 8.0 | 9.0 | 0.00 | 0.00 | 0.00 | 38 | 1017.6 |
| 20260501184238 | 50 | 47 | 5.0 | 8.0 | 0.00 | 0.00 | 0.00 | 39 | 1017.5 |
| 20260501183734 | 49 | 51 | 6.0 | 7.0 | 0.00 | 0.00 | 0.00 | 37 | 1017.3 |
| 20260501183232 | 49 | 356 | 2.0 | 5.0 | 0.00 | 0.00 | 0.00 | 39 | 1017.6 |
| 20260501182728 | 47 | 15 | 5.0 | 6.0 | 0.00 | 0.00 | 0.00 | 41 | 1017.7 |
| 20260501182225 | 49 | 30 | 4.0 | 6.0 | 0.00 | 0.00 | 0.00 | 40 | 1017.7 |
| 20260501181722 | 50 | 22 | 3.0 | 3.0 | 0.00 | 0.00 | 0.00 | 41 | 1017.6 |
| 20260501181219 | 49 | 63 | 3.0 | 6.0 | 0.00 | 0.00 | 0.00 | 39 | 1017.4 |
| 20260501180717 | 49 | 54 | 8.0 | 11.0 | 0.00 | 0.00 | 0.00 | 39 | 1017.7 |
| 20260501180212 | 48 | 64 | 4.0 | 6.0 | 0.00 | 0.00 | 0.00 | 40 | 1017.8 |
| 20260501175709 | 49 | 33 | 4.0 | 5.0 | 0.00 | 0.00 | 0.00 | 37 | 1017.8 |
| 20260501175207 | 49 | 355 | 5.0 | 6.0 | 0.00 | 0.00 | 0.00 | 36 | 1017.9 |
| 20260501174703 | 48 | 52 | 8.0 | 9.0 | 0.00 | 0.00 | 0.00 | 39 | 1018.0 |
| 20260501174201 | 47 | 342 | 4.0 | 5.0 | 0.00 | 0.00 | 0.00 | 40 | 1017.8 |
| 20260501173658 | 47 | 66 | 5.0 | 7.0 | 0.00 | 0.00 | 0.00 | 43 | 1017.9 |
| 20260501173155 | 47 | 2 | 3.0 | 3.0 | 0.00 | 0.00 | 0.00 | 42 | 1017.9 |
| 20260501172651 | 48 | 20 | 6.0 | 7.0 | 0.00 | 0.00 | 0.00 | 40 | 1017.8 |
| 20260501172146 | 48 | 68 | 4.0 | 7.0 | 0.00 | 0.00 | 0.00 | 42 | 1017.8 |
| 20260501171642 | 48 | 31 | 5.0 | 7.0 | 0.00 | 0.00 | 0.00 | 38 | 1017.9 |
| 20260501171139 | 48 | 70 | 5.0 | 6.0 | 0.00 | 0.00 | 0.00 | 41 | 1018.0 |
| 20260501170636 | 48 | 62 | 5.0 | 8.0 | 0.00 | 0.00 | 0.00 | 43 | 1017.8 |
| 20260501170133 | 47 | 252 | 2.0 | 2.0 | 0.00 | 0.00 | 0.00 | 40 | 1017.8 |
| 20260501165631 | 47 | 40 | 5.0 | 6.0 | 0.00 | 0.00 | 0.00 | 44 | 1017.9 |
| 20260501165127 | 46 | 58 | 4.0 | 5.0 | 0.00 | 0.00 | 0.00 | 44 | 1018.0 |
| 20260501164626 | 46 | 6 | 5.0 | 7.0 | 0.00 | 0.00 | 0.00 | 43 | 1018.0 |